Regional Weather Roundup
Issued by NWS

Home | Current Version | Previous Version | Text Only | Print | Product List | Glossary On
Versions: 1 2 3 4 5 6 7 8 9 10 11 12 13 14 15 16 17 18 19 20 21 22 23 24 25 26 27 28
000
ASUS46 KPQR 300510
RWROR

OREGON REGIONAL WEATHER ROUNDUP
NATIONAL WEATHER SERVICE PORTLAND OR
1000 PM PDT SUN MAY 29 2016

NOTE: "FAIR" INDICATES FEW OR NO CLOUDS BELOW 12,000 FEET WITH
NO SIGNIFICANT WEATHER AND/OR OBSTRUCTIONS TO VISIBILITY.

ORZ001>013-300600-
NORTHWEST OREGON


CITY           SKY/WX    TMP DP  RH WIND       PRES   REMARKS
ASTORIA        PTCLDY    55  47  74 MISG      30.26R
NEWPORT        CLEAR     52  46  82 NE3       30.26R
PORTLAND       PTCLDY    59  43  55 NW7       30.22R
VANCOUVER WA   CLEAR     59  42  53 N7        30.21R
SCAPPOOSE      CLEAR     56  42  59 NW6       30.21R
HILLSBORO      CLEAR     54  41  61 NW7       30.22R
AURORA         CLEAR     58  43  57 N12       30.21R
MCMINNVILLE    CLEAR     58  44  60 NW7       30.21R
SALEM          MOCLDY    58  46  64 N8        30.19R
CORVALLIS        N/A     55  46  71 W8        30.20R
EUGENE         CLEAR     51  47  86 NE5       30.19R
$$

ORZ021-028-300600-
SOUTHWEST OREGON


CITY           SKY/WX    TMP DP  RH WIND       PRES   REMARKS
NORTH BEND     CLEAR     55  50  82 N17       30.22R
BROOKINGS      CLEAR     56  50  80 SE3       30.07R
ROSEBURG       CLEAR     65  48  54 NW6       30.15R
SEXTON SUMMIT  CLEAR     52  42  69 N12G24    30.17R
MEDFORD        CLEAR     67  42  40 N5        30.11R
$$

ORZ014>016-041-300600-
COLUMBIA GORGE


CITY           SKY/WX    TMP DP  RH WIND       PRES   REMARKS
TROUTDALE      CLEAR     60  41  49 VRB5      30.20R
HOOD RIVER     CLEAR     59  43  55 W3        30.17R
THE DALLES     CLEAR     64  42  44 W14       30.13R
$$

ORZ029>031-041-044-049-050-061>064-502-503-505>511-300600-
EASTERN OREGON


CITY           SKY/WX    TMP DP  RH WIND       PRES   REMARKS
REDMOND        CLEAR     54  38  54 N9        30.16R
BEND           CLEAR     55  36  47 N7        30.16R
PRINEVILLE     CLEAR     54  39  58 N13       30.16R
KLAMATH FALLS  CLEAR     51  35  54 VRB3      30.15R
LAKEVIEW       CLEAR     54  34  47 N8        30.16R
HERMISTON      CLEAR     62  43  49 W10       30.09R
PENDLETON      CLEAR     60  39  45 W21       30.09R
JOHN DAY         N/A    N/A N/A N/A MISG        N/A
MEACHAM        PTCLDY    50  34  54 CALM      30.14R
LA GRANDE      CLEAR     57  32  38 NW15      30.10R
BAKER CITY     CLEAR     56  36  47 NW12G21   30.10R
BURNS          CLEAR     52  29  41 W12       30.10R
ROME             N/A     59  26  28 W6        30.05R
ONTARIO        CLEAR     68  39  34 NW15      30.00R
$$




USA.gov is the U.S. government's official web portal to all federal, state and local government web resources and services.